Location: *
(48.4333°N, 5.0333°W)
Time: 07:53:24
(UTC+00:00)

Cosmos 1934 Rocket - Visible Passes

Search period start: 11 August 2020 00:00
Search period end: 21 August 2020 00:00
Orbit: 939 x 998 km, 83.0° (Epoch: 10 August)

Date Brightness Start Highest point End Pass type
(mag) Time Alt. Az. Time Alt. Az. Time Alt. Az.
11 Aug 4.1 20:42:38 10° S 20:48:52 59° E 20:55:08 10° NNE visible
11 Aug 5.9 22:29:11 10° SW 22:34:33 28° WNW 22:39:55 10° N visible
12 Aug 4.1 21:05:46 10° S 21:12:08 86° W 21:18:33 10° N visible
12 Aug 6.5 22:54:13 10° WSW 22:58:22 18° WNW 23:02:33 10° NNW visible
13 Aug 4.8 21:29:20 10° SSW 21:35:34 55° WNW 21:41:49 10° N visible
13 Aug 6.8 23:20:47 10° WNW 23:22:24 11° NW 23:24:01 10° NW visible
14 Aug 4.4 20:07:43 10° SSE 20:13:44 47° E 20:19:47 10° NNE visible
14 Aug 5.6 21:53:25 10° SW 21:59:09 34° WNW 22:04:54 10° N visible
15 Aug 4.0 20:30:36 10° S 20:36:57 76° E 20:43:19 10° NNE visible
15 Aug 6.3 22:18:06 10° WSW 22:22:54 22° WNW 22:27:43 10° NNW visible
16 Aug 4.4 20:53:58 10° SSW 21:00:18 68° W 21:06:39 10° N visible
16 Aug 6.7 22:43:41 10° W 22:46:50 14° WNW 22:49:59 10° NNW visible
17 Aug 5.3 21:17:48 10° SW 21:23:48 43° WNW 21:29:50 10° N visible
18 Aug 4.1 19:55:33 10° S 20:01:46 60° E 20:08:01 10° NNE visible
18 Aug 6.1 21:42:10 10° WSW 21:47:28 27° WNW 21:52:47 10° N visible
19 Aug 4.2 20:18:41 10° S 20:25:04 85° W 20:31:27 10° N visible
19 Aug 6.7 22:07:14 10° W 22:11:19 17° WNW 22:15:22 10° NNW visible
20 Aug 4.9 20:42:17 10° SSW 20:48:30 53° WNW 20:54:42 10° N visible
20 Aug 7.1 22:34:01 10° WNW 22:35:20 11° NW 22:36:39 10° NW visible
